Home   Weather   Wiener Neustadt   Past weeks

Flag for Austria Past Weather in Wiener Neustadt, Lower Austria, Austria — Yesterday and Last 2 Weeks

Now
51 °F

Cool.


Feels Like: 48 °F
Forecast: 33 / 53 °F
Wind: 7 mph from West

Location: Eisenstadt

Current Time: Dec 9, 2016 at 10:31:21 pm

Latest Report: Dec 9, 2016 at 8:00 pm


Visibility: N/A

Pressure: 30.37 "Hg

Humidity: 53%

Dew Point: 34 °F

Location of Wiener NeustadtLocation

Past Weather in Wiener Neustadt — Graph

°F

Wiener Neustadt Temperature Yesterday

Maximum temperature yesterday: 30 °F (at 5:00 pm)
Minimum temperature yesterday: 28 °F (at 6:00 am)
Average temperature yesterday: 29 °F

High & Low Weather Summary for the Past Weeks

 TemperatureHumidityPressure
High51 °F (Dec 9, 6:00 pm)99% (Dec 9, 11:00 am)30.70 "Hg (Dec 9, 11:00 am)
Low24 °F (Dec 4, 8:00 am)32% (Nov 30, 10:00 pm)29.78 "Hg (Dec 2, 8:00 am)
Average36 °F75%30.30 "Hg
* Reported Nov 24 9:00 pm — Dec 9 8:00 pm, Wiener Neustadt, Weather by CustomWeather, © 2016

Note: Actual official high and low records may vary slightly from our data, if they occured in-between our weather recording intervals... More about our weather records

Advertising

Wiener Neustadt Weather History for the Previous 24 Hours

Scroll right to see more
 ConditionsComfort  
Time TempWeatherWind HumidityBarometerVisibility
8:00 pm
Fri, Dec 9
51 °FCool.7 mph53%30.37 "HgN/A
7:00 pm51 °FPassing clouds.7 mph44%30.37 "Hg6 mi
6:00 pm51 °FCool.8 mph45%30.36 "HgN/A
5:00 pm51 °FCool.7 mph37%30.35 "HgN/A
4:00 pm39 °FOvercast.1 mph78%30.36 "Hg6 mi
3:00 pm41 °FQuite cool.1 mph73%30.36 "HgN/A
2:00 pm41 °FQuite cool.1 mph73%30.37 "HgN/A
1:00 pm41 °FPartly sunny.1 mph78%30.39 "Hg6 mi
12:00 pm36 °FChilly.1 mph94%30.41 "HgN/A
11:00 am31 °FChilly.No wind99%30.42 "HgN/A
10:00 am28 °FFog.1 mph98%30.43 "Hg0 mi
9:00 am26 °FChilly.1 mph97%30.43 "HgN/A
8:00 am26 °FChilly.1 mph96%30.43 "HgN/A
7:00 am27 °FFog.2 mph96%30.42 "Hg0 mi
6:00 am28 °FFog.1 mph96%30.41 "Hg0 mi
5:00 am29 °FChilly.No wind98%30.44 "HgN/A
4:00 am29 °FFog.No wind98%30.44 "Hg0 mi
3:00 am29 °FChilly.1 mph98%30.45 "HgN/A
2:00 am29 °FChilly.1 mph97%30.45 "HgN/A
1:00 am29 °FFog.1 mph97%30.47 "Hg1 mi
12:00 am29 °FChilly.1 mph96%30.49 "HgN/A
11:00 pm
Thu, Dec 8
29 °FChilly.2 mph94%30.50 "HgN/A
10:00 pm29 °FFog.No wind96%30.48 "Hg1 mi
Weather by CustomWeather, © 2016

See weather overviewHow to use our weather pages